COSMOS 2457 (733)

Last updated on Sun Jul 06 2025 00:03:14 GMT+0000 (Coordinated Universal Time)

1 36112U 09070B 25186.14207999 -.00000053 00000+0 00000+0 0 9999 2 36112 64.7919 82.6802 0003423 135.0291 49.2048 2.13101354121034
UTC large
Height (km)
Speed (km/s)
/
Latitude / Longitude
Inclination (degrees)
Orbital Period (minutes)
Azimuth
Elevation
Range (km)
Doppler Factor

Next 0 passes for location: London (51.5072 / 0.1276)

Sorry there are no passes over London.